Change the Weather History Date:

Monday, July 1, 2013

  Actual Average Record
Temperature  
Mean Temperature 75 °F 73 °F  
Max Temperature 79 °F 83 °F 97 °F (1963)
Min Temperature 71 °F 62 °F 48 °F (1943)
Degree Days  
Heating Degree Days 0 0  
Month to date heating degree days 0 0  
Since 1 June heating degree days 9 33  
Since 1 July heating degree days 0 0  
Cooling Degree Days 10 8  
Month to date cooling degree days 10 8  
Year to date cooling degree days 273 208  
Since 1 June cooling degree days 201 163  
Growing Degree Days 25 (Base 50)    
Moisture  
Dew Point 71 °F    
Average Humidity 87    
Maximum Humidity 100    
Minimum Humidity 74    
Precipitation  
Precipitation 1.16 in 0.15 in 1.16 in (2013)
Month to date precipitation 1.16 0.15  
Year to date precipitation 21.54 21.28  
Snow  
Snow 0.00 in 0.00 in 0.00 in (2002)
Month to date snowfall 0.0 0.0  
Since 1 June snowfall 0.0 0.0  
Since 1 July snowfall 0.0 0.0  
Snow Depth 0.00 in    
Sea Level Pressure  
Sea Level Pressure 29.93 in    
Wind  
Wind Speed 6 mph (SE)    
Max Wind Speed 15 mph    
Max Gust Speed 23 mph    
Visibility 8 miles    
Events Fog , Rain    
T = Trace of Precipitation, MM = Missing Value Source: NWS Daily Summary

Daily Weather History Graph

Daily Weather History Graph

Search for Another Location

Airport or City:

Trip Planner

Search our weather history database for the weather conditions in past years. The results will help you decide how hot, cold, wet, or windy it might be!

Date:

Astronomy

Jul. 01, 2013 Rise Set
Actual Time 5:34 AM EDT 8:36 PM EDT
Civil Twilight 5:01 AM EDT 9:09 PM EDT
Nautical Twilight 4:19 AM EDT 9:51 PM EDT
Astronomical Twilight 3:29 AM EDT 10:41 PM EDT
Moon 1:04 AM EDT (7/1) 2:48 PM EDT (7/1)
Length of Visible Light 16h 08m
Length of Day
15h 01m
Waning Crescent, 35% of the Moon is Illuminated
Jul 1
Waning Crescent
Jul 8
New
Jul 15
First Quarter
Jul 22
Full
Jul 29
Last Quarter

Hourly Weather History & Observations

Time (EDT) Temp. Dew Point Humidity Pressure Visibility Wind Dir Wind Speed Gust Speed Precip Events Conditions
12:28 AM 75.2 °F 69.8 °F 83% 29.90 in 10.0 mi East 5.8 mph - 0.01 in Rain Light Rain
12:35 AM 75.2 °F 71.6 °F 89% 29.90 in 10.0 mi ESE 6.9 mph - 0.01 in Rain Light Rain
12:51 AM 75.0 °F 71.1 °F 87% 29.89 in 10.0 mi East 5.8 mph - 0.01 in Rain Light Rain
1:51 AM 73.9 °F 71.1 °F 91% 29.88 in 8.0 mi East 5.8 mph - 0.02 in Rain Light Rain
2:05 AM 73.4 °F 71.6 °F 94% 29.89 in 10.0 mi East 5.8 mph - 0.00 in   Overcast
2:44 AM 73.4 °F 71.6 °F 94% 29.89 in 1.8 mi East 8.1 mph - 0.13 in Rain Heavy Rain
2:51 AM 73.0 °F 72.0 °F 96% 29.88 in 2.5 mi East 6.9 mph - 0.21 in Rain Rain
2:56 AM 73.4 °F 71.6 °F 94% 29.88 in 5.0 mi East 6.9 mph - 0.01 in Rain Light Rain
3:26 AM 73.4 °F 71.6 °F 94% 29.87 in 2.0 mi ESE 6.9 mph - 0.17 in Rain Heavy Rain
3:34 AM 73.4 °F 71.6 °F 94% 29.88 in 3.0 mi Calm Calm - 0.23 in Rain Light Rain
3:51 AM 72.0 °F 71.1 °F 97% 29.88 in 10.0 mi ESE 3.5 mph - 0.23 in Rain Light Rain
4:00 AM 71.6 °F 71.6 °F 100% 29.89 in 10.0 mi Calm Calm - N/A   Overcast
4:30 AM 73.4 °F 69.8 °F 88% 29.90 in 10.0 mi Variable 5.8 mph - 0.00 in Rain Light Rain
4:37 AM 71.6 °F 69.8 °F 94% 29.90 in 10.0 mi NW 4.6 mph - 0.00 in Rain Light Rain
4:51 AM 72.0 °F 70.0 °F 93% 29.89 in 10.0 mi Calm Calm - 0.00 in   Mostly Cloudy
5:04 AM 71.6 °F 69.8 °F 94% 29.90 in 10.0 mi NNE 4.6 mph - 0.01 in Rain Light Rain
5:51 AM 72.0 °F 70.0 °F 93% 29.91 in 10.0 mi East 3.5 mph - 0.01 in   Mostly Cloudy
6:35 AM 71.6 °F 69.8 °F 94% 29.93 in 10.0 mi East 6.9 mph - 0.00 in Rain Light Rain
6:51 AM 71.1 °F 70.0 °F 96% 29.91 in 4.0 mi East 5.8 mph - 0.04 in Rain Rain
7:18 AM 71.6 °F 69.8 °F 94% 29.92 in 5.0 mi NE 3.5 mph - 0.06 in Rain Rain
7:51 AM 71.1 °F 70.0 °F 96% 29.92 in 3.0 mi ENE 5.8 mph - 0.14 in Rain Rain
8:10 AM 71.6 °F 69.8 °F 94% 29.94 in 5.0 mi ESE 4.6 mph - 0.03 in Rain Light Rain
8:20 AM 71.6 °F 69.8 °F 94% 29.94 in 10.0 mi ESE 5.8 mph - 0.03 in Rain Light Rain
8:51 AM 73.0 °F 71.1 °F 93% 29.95 in 10.0 mi ESE 3.5 mph - 0.03 in Rain Light Rain
9:15 AM 73.4 °F 71.6 °F 94% 29.96 in 10.0 mi Calm Calm - N/A   Mostly Cloudy
9:51 AM 75.0 °F 71.1 °F 87% 29.95 in 10.0 mi Variable 4.6 mph - N/A   Mostly Cloudy
10:51 AM 75.0 °F 71.1 °F 87% 29.96 in 7.0 mi Calm Calm - 0.01 in Rain Light Rain
10:58 AM 75.2 °F 71.6 °F 89% 29.96 in 10.0 mi ESE 3.5 mph - 0.00 in Rain Light Rain
11:21 AM 77.0 °F 71.6 °F 83% 29.96 in 10.0 mi SSE 3.5 mph - 0.00 in   Mostly Cloudy
11:51 AM 77.0 °F 71.1 °F 82% 29.95 in 10.0 mi SSE 8.1 mph - 0.00 in   Mostly Cloudy
12:51 PM 78.1 °F 72.0 °F 81% 29.95 in 10.0 mi ESE 5.8 mph - N/A   Overcast
1:31 PM 75.2 °F 71.6 °F 89% 29.95 in 1.2 mi SE 11.5 mph 16.1 mph 0.01 in Rain Heavy Rain
1:37 PM 75.2 °F 71.6 °F 89% 29.95 in 0.5 mi South 5.8 mph 16.1 mph 0.31 in Fog , Rain Heavy Rain
1:48 PM 75.2 °F 73.4 °F 94% 29.94 in 2.5 mi SE 5.8 mph - 0.46 in Rain Light Rain
1:51 PM 75.0 °F 73.0 °F 94% 29.94 in 7.0 mi SE 4.6 mph - 0.46 in Rain Light Rain
2:12 PM 77.0 °F 73.4 °F 89% 29.94 in 9.0 mi SE 3.5 mph - 0.01 in Rain Light Rain
2:51 PM 77.0 °F 73.0 °F 88% 29.94 in 10.0 mi SSE 5.8 mph - 0.01 in   Mostly Cloudy
3:19 PM 77.0 °F 73.4 °F 89% 29.94 in 10.0 mi South 8.1 mph - 0.00 in Rain Light Rain
3:40 PM 77.0 °F 73.4 °F 89% 29.95 in 10.0 mi SSE 10.4 mph - 0.00 in Rain Light Rain
3:51 PM 77.0 °F 71.1 °F 82% 29.94 in 10.0 mi South 12.7 mph 19.6 mph 0.00 in   Overcast
4:15 PM 78.8 °F 73.4 °F 83% 29.95 in 10.0 mi South 10.4 mph - N/A   Mostly Cloudy
4:51 PM 77.0 °F 71.1 °F 82% 29.94 in 10.0 mi South 12.7 mph 23.0 mph N/A   Mostly Cloudy
5:51 PM 79.0 °F 71.1 °F 77% 29.94 in 10.0 mi South 9.2 mph - N/A   Mostly Cloudy
6:51 PM 78.1 °F 70.0 °F 76% 29.96 in 10.0 mi South 11.5 mph - N/A   Mostly Cloudy
6:58 PM 78.8 °F 69.8 °F 74% 29.97 in 10.0 mi South 10.4 mph - N/A   Mostly Cloudy
7:51 PM 78.1 °F 71.1 °F 79% 29.97 in 10.0 mi South 10.4 mph - N/A   Mostly Cloudy
8:51 PM 77.0 °F 71.1 °F 82% 29.98 in 10.0 mi South 6.9 mph - N/A   Mostly Cloudy
9:01 PM 77.0 °F 71.6 °F 83% 29.99 in 10.0 mi South 5.8 mph - N/A   Mostly Cloudy
9:33 PM 77.0 °F 71.6 °F 83% 30.01 in 10.0 mi South 4.6 mph - N/A   Mostly Cloudy
9:51 PM 77.0 °F 71.1 °F 82% 30.01 in 10.0 mi South 4.6 mph - N/A   Mostly Cloudy
10:12 PM 77.0 °F 71.6 °F 83% 30.01 in 10.0 mi South 9.2 mph - N/A   Mostly Cloudy
10:51 PM 77.0 °F 71.1 °F 82% 30.01 in 10.0 mi South 8.1 mph - N/A   Mostly Cloudy
11:51 PM 75.9 °F 72.0 °F 87% 30.01 in 10.0 mi South 8.1 mph - N/A   Scattered Clouds